Location: PACMO
(41.3967°N, 90.3760°W)
Time: 18:48:40
(UTC-05:00)

NOAA 19 - Visible Passes

Search period start: 31 August 2015 00:00
Search period end: 10 September 2015 00:00
Orbit: 843 x 862 km, 99.0° (Epoch: 31 August)

Date Brightness Start Highest point End Pass type
(mag) Time Alt. Az. Time Alt. Az. Time Alt. Az.
31 Aug 7.4 02:20:55 10° NE 02:24:09 16° E 02:24:09 16° E visible
31 Aug 5.1 03:59:57 10° N 04:05:30 68° WNW 04:06:11 61° WSW visible
31 Aug 7.3 05:44:49 10° NW 05:45:19 10° WNW 05:45:29 10° WNW visible
01 Sep 7.7 02:10:34 10° ENE 02:12:39 13° E 02:12:39 13° E visible
01 Sep 5.0 03:48:39 10° NNE 03:54:15 84° WNW 03:54:41 76° SW visible
01 Sep 7.1 05:31:45 10° NNW 05:34:14 13° WNW 05:36:25 10° W visible
02 Sep 5.2 03:37:23 10° NNE 03:42:59 79° ESE 03:43:11 77° SE visible
02 Sep 6.9 05:19:46 10° NNW 05:23:07 16° WNW 05:25:14 13° W visible
03 Sep 5.5 03:26:10 10° NNE 03:31:42 63° E 03:31:42 63° E visible
03 Sep 6.7 05:08:02 10° NNW 05:11:58 20° WNW 05:13:43 17° W visible
04 Sep 5.9 03:15:00 10° NNE 03:20:11 49° E 03:20:11 49° E visible
04 Sep 6.4 04:56:25 10° NNW 05:00:49 24° WNW 05:02:13 21° W visible
05 Sep 6.3 03:03:52 10° NNE 03:08:41 39° E 03:08:41 39° E visible
05 Sep 6.2 04:44:53 10° N 04:49:39 29° WNW 04:50:43 27° W visible
06 Sep 6.7 02:52:49 10° NE 02:57:11 31° E 02:57:11 31° E visible
06 Sep 5.9 04:33:24 10° N 04:38:28 36° WNW 04:39:13 34° W visible
07 Sep 7.0 02:41:51 10° NE 02:45:40 25° E 02:45:40 25° E visible
07 Sep 5.6 04:21:59 10° N 04:27:16 45° WNW 04:27:42 44° W visible
08 Sep 7.3 02:30:59 10° NE 02:34:09 19° E 02:34:09 19° E visible
08 Sep 5.3 04:10:36 10° N 04:16:03 56° WNW 04:16:12 55° WNW visible
09 Sep 7.6 02:20:19 10° NE 02:22:40 15° E 02:22:40 15° E visible
09 Sep 5.2 03:59:16 10° N 04:04:42 69° WNW 04:04:42 69° WNW visible
09 Sep 7.2 05:43:37 10° NW 05:44:39 10° WNW 05:45:21 10° WNW visible
